Regional Weather Roundup
Issued by NWS Northern Indiana

Home | Current Version | Previous Version | Text Only | Print | Product List | Glossary On
Versions: 1 2 3 4 5 6 7 8 9 10 11 12 13 14 15 16 17 18 19 20 21 22 23 24 25 26 27 28 29 30 31 32 33 34 35 36 37 38 39 40 41 42 43 44 45 46 47 48 49 50
000
ASUS43 KIWX 180500
RWRIWX

KIWX WEATHER ROUNDUP
NATIONAL WEATHER SERVICE NORTHERN INDIANA
100 AM EDT WED OCT 18 2017

NOTE: "FAIR" INDICATES FEW OR NO CLOUDS BELOW 12,000 FEET WITH NO
SIGNIFICANT WEATHER AND/OR OBSTRUCTIONS TO VISIBILITY.

* THESE STATIONS ARE NOT UNDER NWS QUALITY CONTROL. THEY ALSO MAY NOT
  REPORT WEATHER SUCH AS PRECIPITATION OR FOG.

INZ001>027-180600-
NORTHERN INDIANA

CITY           SKY/WX    TMP DP  RH WIND       PRES   REMARKS
SOUTH BEND     CLEAR     50  40  68 SW6       30.21S
GOSHEN         CLEAR     51  39  63 S7        30.21S
MONTICELLO*    CLEAR     50  39  66 S3        30.22R
FORT WAYNE     PTCLDY    47  39  74 S5        30.24F
PERU/GRISSOM   CLEAR     47  40  75 S7        30.23R

$$
INZ028>050-180600-
CENTRAL INDIANA

CITY           SKY/WX    TMP DP  RH WIND       PRES   REMARKS
LAFAYETTE      PTCLDY    48  41  76 CALM      30.22F
KOKOMO*        PTCLDY    47  39  74 S6        30.24S
MUNCIE*        CLEAR     50  39  66 S5        30.25S
INDIANAPOLIS   CLEAR     47  39  74 SW6       30.25F

$$
MIZ043>046-050>051-056>058-064>065-071>073-077>080-180600-
SOUTHWEST LOWER MICHIGAN

CITY           SKY/WX    TMP DP  RH WIND       PRES   REMARKS
BATTLE CREEK   CLEAR     53  41  63 SW8       30.19S
BENTON HARBOR  CLEAR     54  39  57 S6        30.18S
COLDWATER*     CLEAR     51  39  63 SW6       30.21S
HILLSDALE*     CLEAR     52  37  58 SW8       30.21S
HOLLAND        CLEAR     59  45  59 SW12      30.16S
GRAND RAPIDS   CLEAR     55  42  61 SW9       30.16S
KALAMAZOO      CLEAR     52  40  63 S10       30.19F
STURGIS*       CLEAR     47  40  76 S5        30.21S
THREE RIVERS*  FAIR      50  41  71 CALM      30.21S

$$
OHZ001>008-015>018-024>025-180600-
NORTHWEST OHIO

CITY           SKY/WX    TMP DP  RH WIND       PRES   REMARKS
DEFIANCE       CLEAR     50  39  66 SW3       30.24R
FINDLAY        CLEAR     48  39  71 S10       30.24F
TOLEDO EXPRESS CLEAR     47  44  90 S3        30.23S
TOLEDO METCALF CLEAR     50  41  71 S9        30.24S
LIMA           CLEAR     46  40  79 S5        30.26S

$$
AND FOR LAKE MICHIGAN COASTAL AND OPEN LAKE BUOY OBSERVATIONS

STATION/POSITION TEMP    WIND        PRES    VSBY  WAVE
                 AIR SEA DIR/SP/G                  HT/PER
                 (F)     (DEG/KT/KT) (MB)    (MI)  (FT/S)
CALUMET HARBOR    58     190/  8/ 13 1020.6F
MICHIGAN CITY     56     170/ 13/ 15   N/A
BURNS HARBOR      56     190/ 12/ 15 1022.0F
SAINT JOSEPH      58     180/  6/ 15 1022.7
SOUTH LAKE BUOY   63 61  210/ 17/ 21 1020.2          3/ 4
4 MI NW BRIDGMAN  59 58  210/ 14/ 16 1022.2S         3/ 4
MICHIGAN CITY     58 57  210/ 14/ 17   N/A           2/ 3

$$
&&




USA.gov is the U.S. government's official web portal to all federal, state and local government web resources and services.